,,PA_Meas_PMT16A,,PR_Meas_QMR101_102,,RH_Meas_QMH101,,SR_Meas_QMS101,,TA_Meas_QMH101,,GenWind,,GenWind,
time,status,PA,status,PR,status,RH,status,SR,status,TA,status,DirAvg,status,SpdAvg,
2011-04-26, 00:00:04,VALID,916.844,VALID,0,VALID,97.1757,VALID,0,VALID,19.8378,VALID,147,VALID,0.419141,
2011-04-26, 00:01:04,VALID,916.845,VALID,0,VALID,97.1604,VALID,0,VALID,19.8183,VALID,147,VALID,0.423438,
2011-04-26, 00:02:04,VALID,916.818,VALID,0,VALID,97.1681,VALID,0,VALID,19.8393,VALID,147,VALID,0.447266,
2011-04-26, 00:03:04,VALID,916.796,VALID,0,VALID,97.1604,VALID,0,VALID,19.8588,VALID,147,VALID,0.607813,
2011-04-26, 00:04:04,VALID,916.765,VALID,0,VALID,97.1909,VALID,0,VALID,19.8588,VALID,147,VALID,0.749609,
2011-04-26, 00:05:04,VALID,916.741,VALID,0,VALID,97.1681,VALID,0,VALID,19.8393,VALID,147,VALID,0.480859,
2011-04-26, 00:06:04,VALID,916.738,VALID,0,VALID,97.1833,VALID,0,VALID,19.8378,VALID,146,VALID,1.00117,
2011-04-26, 00:07:04,VALID,916.7,VALID,0.2,VALID,97.1681,VALID,0,VALID,19.8588,VALID,130,VALID,1.12461,
2011-04-26, 00:08:04,VALID,916.684,VALID,0,VALID,97.1833,VALID,0,VALID,19.8588,VALID,130,VALID,0.973437,
2011-04-26, 00:09:04,VALID,916.675,VALID,0,VALID,97.1833,VALID,0,VALID,19.8378,VALID,130,VALID,0.872266,
2011-04-26, 00:10:04,VALID,916.656,VALID,0,VALID,97.1681,VALID,0,VALID,19.8588,VALID,131,VALID,1.00039,
2011-04-26, 00:11:04,VALID,916.643,VALID,0,VALID,97.1909,VALID,0,VALID,19.8588,VALID,131,VALID,0.794141,
2011-04-26, 00:12:04,VALID,916.612,VALID,0,VALID,97.1909,VALID,0,VALID,19.8378,VALID,130,VALID,0.778125,
2011-04-26, 00:13:04,VALID,916.621,VALID,0,VALID,97.1833,VALID,0,VALID,19.8393,VALID,130,VALID,0.564453,
2011-04-26, 00:14:04,VALID,916.592,VALID,0,VALID,97.1681,VALID,0,VALID,19.8393,VALID,130,VALID,0.400391,
2011-04-26, 00:15:04,VALID,916.578,VALID,0,VALID,97.1833,VALID,0,VALID,19.8393,VALID,130,VALID,0.796094,
2011-04-26, 00:16:04,VALID,916.565,VALID,0,VALID,97.1757,VALID,0,VALID,19.8588,VALID,130,VALID,0.467578,
2011-04-26, 00:17:04,VALID,916.578,VALID,0,VALID,97.1833,VALID,0,VALID,19.8183,VALID,130,VALID,0.503516,
2011-04-26, 00:18:04,VALID,916.544,VALID,0,VALID,97.2062,VALID,0.107441,VALID,19.8183,VALID,131,VALID,0.438281,
2011-04-26, 00:19:04,VALID,916.534,VALID,0.2,VALID,97.1833,VALID,0,VALID,19.8393,VALID,130,VALID,0.580859,
2011-04-26, 00:20:04,VALID,916.525,VALID,0,VALID,97.1909,VALID,0.107441,VALID,19.8168,VALID,130,VALID,0.605078,
2011-04-26, 00:21:04,VALID,916.492,VALID,0,VALID,97.1833,VALID,0.107441,VALID,19.8183,VALID,131,VALID,0.890234,
2011-04-26, 00:22:04,VALID,916.494,VALID,0,VALID,97.2062,VALID,0,VALID,19.8198,VALID,130,VALID,0.674219,
2011-04-26, 00:23:04,VALID,916.471,VALID,0,VALID,97.1909,VALID,0,VALID,19.8603,VALID,130,VALID,0.631641,
2011-04-26, 00:24:04,VALID,916.48,VALID,0,VALID,97.2062,VALID,0,VALID,19.8408,VALID,141,VALID,0.508594,
2011-04-26, 00:25:04,VALID,916.492,VALID,0,VALID,97.2062,VALID,0,VALID,19.8183,VALID,141,VALID,0.428125,
2011-04-26, 00:26:04,VALID,916.481,VALID,0,VALID,97.2214,VALID,0,VALID,19.8198,VALID,141,VALID,0.267188,
2011-04-26, 00:27:04,VALID,916.458,VALID,0,VALID,97.1986,VALID,0,VALID,19.8198,VALID,141,VALID,0.756641,
2011-04-26, 00:28:04,VALID,916.457,VALID,0,VALID,97.1986,VALID,0,VALID,19.8183,VALID,141,VALID,0.735547,
2011-04-26, 00:29:04,VALID,916.441,VALID,0,VALID,97.2138,VALID,0,VALID,19.8183,VALID,141,VALID,0.761719,
2011-04-26, 00:30:04,VALID,916.444,VALID,0,VALID,97.2062,VALID,0,VALID,19.7988,VALID,141,VALID,0.913672,
2011-04-26, 00:31:04,VALID,916.442,VALID,0,VALID,97.2062,VALID,0,VALID,19.8183,VALID,141,VALID,0.597266,
2011-04-26, 00:32:04,VALID,916.448,VALID,0,VALID,97.2214,VALID,0,VALID,19.8393,VALID,141,VALID,0.407031,
2011-04-26, 00:33:04,VALID,916.434,VALID,0,VALID,97.2214,VALID,0.107441,VALID,19.8183,VALID,141,VALID,0.344531,
2011-04-26, 00:34:04,VALID,916.456,VALID,0,VALID,97.2062,VALID,0.107441,VALID,19.8183,VALID,141,VALID,0.427344,
2011-04-26, 00:35:04,VALID,916.437,VALID,0,VALID,97.2214,VALID,0.107441,VALID,19.8183,VALID,141,VALID,0.36875,
2011-04-26, 00:36:04,VALID,916.442,VALID,0,VALID,97.229,VALID,0,VALID,19.8183,VALID,141,VALID,0.229297,
2011-04-26, 00:37:04,VALID,916.453,VALID,0.2,VALID,97.2367,VALID,0,VALID,19.8198,VALID,142,VALID,0.357422,
2011-04-26, 00:38:04,VALID,916.478,VALID,0,VALID,97.229,VALID,0,VALID,19.8198,VALID,142,VALID,0.360547,
2011-04-26, 00:39:04,VALID,916.424,VALID,0,VALID,97.2519,VALID,0,VALID,19.8198,VALID,142,VALID,0.108984,
2011-04-26, 00:40:04,VALID,916.496,VALID,0,VALID,97.2443,VALID,0,VALID,19.8198,VALID,142,VALID,0.407031,
2011-04-26, 00:41:04,VALID,916.499,VALID,0,VALID,97.2595,VALID,0,VALID,19.8003,VALID,142,VALID,0.366016,
2011-04-26, 00:42:04,VALID,916.461,VALID,0,VALID,97.2519,VALID,0,VALID,19.8003,VALID,142,VALID,0.739453,
2011-04-26, 00:43:04,VALID,916.475,VALID,0,VALID,97.2595,VALID,0,VALID,19.8003,VALID,142,VALID,0.754297,
2011-04-26, 00:44:04,VALID,916.478,VALID,0,VALID,97.2519,VALID,0,VALID,19.8003,VALID,142,VALID,0.855078,
2011-04-26, 00:45:04,VALID,916.45,VALID,0,VALID,97.2748,VALID,0,VALID,19.7808,VALID,142,VALID,0.820703,
2011-04-26, 00:46:04,VALID,916.486,VALID,0,VALID,97.2595,VALID,0,VALID,19.8198,VALID,142,VALID,0.755469,
2011-04-26, 00:47:04,VALID,916.476,VALID,0,VALID,97.2748,VALID,0,VALID,19.8003,VALID,142,VALID,0.849609,
2011-04-26, 00:48:04,VALID,916.475,VALID,0,VALID,97.2595,VALID,0,VALID,19.8003,VALID,142,VALID,0.605859,
2011-04-26, 00:49:04,VALID,916.47,VALID,0,VALID,97.2672,VALID,0,VALID,19.8003,VALID,142,VALID,0.325391,
2011-04-26, 00:50:04,VALID,916.48,VALID,0,VALID,97.2748,VALID,0,VALID,19.8003,VALID,142,VALID,0.336719,
2011-04-26, 00:51:04,VALID,916.46,VALID,0,VALID,97.29,VALID,0,VALID,19.8408,VALID,142,VALID,0.00585938,
2011-04-26, 00:52:04,VALID,916.467,VALID,0,VALID,97.2977,VALID,0,VALID,19.8198,VALID,142,VALID,0.387109,
2011-04-26, 00:53:04,VALID,916.456,VALID,0.2,VALID,97.2824,VALID,0,VALID,19.8198,VALID,142,VALID,0.152734,
2011-04-26, 00:54:04,VALID,916.444,VALID,0,VALID,97.2748,VALID,0,VALID,19.8393,VALID,142,VALID,0,
2011-04-26, 00:55:04,VALID,916.447,VALID,0,VALID,97.2977,VALID,0,VALID,19.8393,VALID,142,VALID,0,
2011-04-26, 00:56:04,VALID,916.428,VALID,0,VALID,97.2824,VALID,0,VALID,19.8393,VALID,142,VALID,0,
2011-04-26, 00:57:04,VALID,916.438,VALID,0,VALID,97.2748,VALID,0,VALID,19.8393,VALID,142,VALID,0,
2011-04-26, 00:58:04,VALID,916.44,VALID,0,VALID,97.2748,VALID,0,VALID,19.8393,VALID,142,VALID,0.329297,
2011-04-26, 00:59:04,VALID,916.459,VALID,0,VALID,97.29,VALID,0,VALID,19.8198,VALID,142,VALID,0.558203,
2011-04-26, 01:00:04,VALID,916.403,VALID,0,VALID,97.29,VALID,0,VALID,19.8198,VALID,142,VALID,0.335156,
2011-04-26, 01:01:04,VALID,916.427,VALID,0,VALID,97.2824,VALID,0,VALID,19.8198,VALID,142,VALID,0.606641,
2011-04-26, 01:02:04,VALID,916.433,VALID,0,VALID,97.2824,VALID,0,VALID,19.8198,VALID,142,VALID,0.658203,
2011-04-26, 01:03:04,VALID,916.427,VALID,0,VALID,97.29,VALID,0,VALID,19.8393,VALID,142,VALID,0.128516,
2011-04-26, 01:04:04,VALID,916.425,VALID,0,VALID,97.2977,VALID,0,VALID,19.8198,VALID,142,VALID,0.523828,
2011-04-26, 01:05:04,VALID,916.439,VALID,0,VALID,97.2824,VALID,0,VALID,19.7988,VALID,142,VALID,0.714453,
2011-04-26, 01:06:04,VALID,916.414,VALID,0,VALID,97.29,VALID,0,VALID,19.8408,VALID,142,VALID,0.694531,
2011-04-26, 01:07:04,VALID,916.41,VALID,0,VALID,97.3053,VALID,0,VALID,19.8198,VALID,142,VALID,0.620703,
2011-04-26, 01:08:04,VALID,916.424,VALID,0,VALID,97.2977,VALID,0,VALID,19.8198,VALID,142,VALID,0.517187,
2011-04-26, 01:09:04,VALID,916.422,VALID,0,VALID,97.2977,VALID,0,VALID,19.8393,VALID,142,VALID,0.605469,
2011-04-26, 01:10:04,VALID,916.433,VALID,0,VALID,97.3205,VALID,0,VALID,19.8198,VALID,142,VALID,0.442187,
2011-04-26, 01:11:04,VALID,916.41,VALID,0.2,VALID,97.3053,VALID,0,VALID,19.8393,VALID,142,VALID,0.407422,
2011-04-26, 01:12:04,VALID,916.41,VALID,0,VALID,97.3053,VALID,0,VALID,19.8393,VALID,142,VALID,0.522656,
2011-04-26, 01:13:04,VALID,916.431,VALID,0,VALID,97.3205,VALID,0,VALID,19.8393,VALID,142,VALID,0.308203,
2011-04-26, 01:14:04,VALID,916.419,VALID,0,VALID,97.3053,VALID,0,VALID,19.8393,VALID,142,VALID,0.661719,
2011-04-26, 01:15:04,VALID,916.393,VALID,0,VALID,97.29,VALID,0,VALID,19.8198,VALID,142,VALID,0.545313,
2011-04-26, 01:16:04,VALID,916.416,VALID,0,VALID,97.3205,VALID,0,VALID,19.7988,VALID,142,VALID,0.559766,
2011-04-26, 01:17:04,VALID,916.373,VALID,0,VALID,97.3281,VALID,0,VALID,19.7988,VALID,141,VALID,0.659375,
2011-04-26, 01:18:04,VALID,916.427,VALID,0,VALID,97.3205,VALID,0,VALID,19.8003,VALID,141,VALID,0.286328,
2011-04-26, 01:19:04,VALID,916.389,VALID,0,VALID,97.3205,VALID,0,VALID,19.8198,VALID,141,VALID,0.535547,
2011-04-26, 01:20:04,VALID,916.383,VALID,0,VALID,97.3281,VALID,0,VALID,19.8393,VALID,141,VALID,0.948438,
2011-04-26, 01:21:04,VALID,916.38,VALID,0,VALID,97.3358,VALID,0,VALID,19.8198,VALID,157,VALID,0.743359,
2011-04-26, 01:22:04,VALID,916.383,VALID,0,VALID,97.3434,VALID,0,VALID,19.8393,VALID,155,VALID,0.736328,
2011-04-26, 01:23:04,VALID,916.348,VALID,0,VALID,97.3205,VALID,0,VALID,19.8408,VALID,142,VALID,0.616797,
2011-04-26, 01:24:04,VALID,916.372,VALID,0,VALID,97.351,VALID,0,VALID,19.8393,VALID,142,VALID,0.0722656,
2011-04-26, 01:25:04,VALID,916.371,VALID,0,VALID,97.351,VALID,0,VALID,19.8393,VALID,142,VALID,0.213672,
2011-04-26, 01:26:04,VALID,916.358,VALID,0,VALID,97.3281,VALID,0,VALID,19.8393,VALID,142,VALID,0.754687,
2011-04-26, 01:27:04,VALID,916.357,VALID,0,VALID,97.3281,VALID,0,VALID,19.8393,VALID,142,VALID,0.631641,
2011-04-26, 01:28:04,VALID,916.33,VALID,0,VALID,97.3281,VALID,0,VALID,19.8393,VALID,142,VALID,0.520703,
2011-04-26, 01:29:04,VALID,916.314,VALID,0,VALID,97.3205,VALID,0,VALID,19.8393,VALID,142,VALID,0.383984,
2011-04-26, 01:30:04,VALID,916.314,VALID,0,VALID,97.351,VALID,0,VALID,19.8393,VALID,142,VALID,0.496875,
2011-04-26, 01:31:04,VALID,916.294,VALID,0,VALID,97.3358,VALID,0,VALID,19.8393,VALID,142,VALID,0.508984,
2011-04-26, 01:32:04,VALID,916.288,VALID,0,VALID,97.3358,VALID,0,VALID,19.8198,VALID,142,VALID,0.314063,
2011-04-26, 01:33:04,VALID,916.255,VALID,0,VALID,97.3586,VALID,0,VALID,19.8198,VALID,142,VALID,0.438281,
2011-04-26, 01:34:04,VALID,916.25,VALID,0,VALID,97.3434,VALID,0,VALID,19.8393,VALID,142,VALID,0.250781,
2011-04-26, 01:35:04,VALID,916.239,VALID,0,VALID,97.3586,VALID,0,VALID,19.8198,VALID,142,VALID,0.612109,
2011-04-26, 01:36:04,VALID,916.22,VALID,0,VALID,97.3358,VALID,0,VALID,19.8198,VALID,142,VALID,0.38125,
2011-04-26, 01:37:04,VALID,916.225,VALID,0,VALID,97.3434,VALID,0,VALID,19.7988,VALID,142,VALID,0.35,
2011-04-26, 01:38:04,VALID,916.212,VALID,0,VALID,97.3586,VALID,0,VALID,19.8393,VALID,142,VALID,0.226953,
2011-04-26, 01:39:04,VALID,916.18,VALID,0,VALID,97.3434,VALID,0,VALID,19.8198,VALID,142,VALID,0.00703125,
2011-04-26, 01:40:04,VALID,916.164,VALID,0,VALID,97.3586,VALID,0,VALID,19.8198,VALID,142,VALID,0.330469,
2011-04-26, 01:41:04,VALID,916.11,VALID,0,VALID,97.351,VALID,0,VALID,19.8198,VALID,142,VALID,0.439453,
2011-04-26, 01:42:04,VALID,916.111,VALID,0,VALID,97.3739,VALID,0,VALID,19.8393,VALID,142,VALID,0.463281,
2011-04-26, 01:43:04,VALID,916.07,VALID,0.2,VALID,97.3586,VALID,0,VALID,19.8198,VALID,142,VALID,0.471484,
2011-04-26, 01:44:04,VALID,916.083,VALID,0,VALID,97.351,VALID,0,VALID,19.8198,VALID,142,VALID,0.490625,
2011-04-26, 01:45:04,VALID,916.065,VALID,0,VALID,97.3434,VALID,0,VALID,19.8003,VALID,142,VALID,0.473437,
2011-04-26, 01:46:04,VALID,916.04,VALID,0,VALID,97.3663,VALID,0,VALID,19.7808,VALID,142,VALID,0.397656,
2011-04-26, 01:47:04,VALID,916.018,VALID,0,VALID,97.3358,VALID,0,VALID,19.7808,VALID,142,VALID,0.451562,
2011-04-26, 01:48:04,VALID,916.023,VALID,0,VALID,97.351,VALID,0,VALID,19.7613,VALID,142,VALID,0.433203,
2011-04-26, 01:49:04,VALID,915.999,VALID,0,VALID,97.3434,VALID,0,VALID,19.7823,VALID,142,VALID,0.401953,
2011-04-26, 01:50:04,VALID,915.989,VALID,0,VALID,97.3586,VALID,0,VALID,19.7628,VALID,142,VALID,0.438672,
2011-04-26, 01:51:04,VALID,915.957,VALID,0,VALID,97.3358,VALID,0,VALID,19.7418,VALID,142,VALID,0.703516,
2011-04-26, 01:52:04,VALID,915.942,VALID,0,VALID,97.3281,VALID,0,VALID,19.7208,VALID,142,VALID,0.65625,
2011-04-26, 01:53:04,VALID,915.973,VALID,0,VALID,97.351,VALID,0,VALID,19.7403,VALID,142,VALID,0.503906,
2011-04-26, 01:54:04,VALID,915.919,VALID,0,VALID,97.3739,VALID,0.107441,VALID,19.7403,VALID,142,VALID,0.531641,
2011-04-26, 01:55:04,VALID,915.905,VALID,0,VALID,97.3663,VALID,0,VALID,19.7403,VALID,142,VALID,0.530469,
2011-04-26, 01:56:04,VALID,915.863,VALID,0,VALID,97.3663,VALID,0,VALID,19.7388,VALID,142,VALID,0.390234,
2011-04-26, 01:57:04,VALID,915.851,VALID,0,VALID,97.3739,VALID,0.107441,VALID,19.7598,VALID,142,VALID,0.331641,
2011-04-26, 01:58:04,VALID,915.85,VALID,0,VALID,97.3663,VALID,0.107441,VALID,19.7793,VALID,142,VALID,0.573438,
2011-04-26, 01:59:04,VALID,915.852,VALID,0,VALID,97.3739,VALID,0.107441,VALID,19.7973,VALID,142,VALID,0.624219,
2011-04-26, 02:00:04,VALID,915.847,VALID,0,VALID,97.3815,VALID,0.107441,VALID,19.7793,VALID,142,VALID,0.684375,
2011-04-26, 02:01:04,VALID,915.843,VALID,0,VALID,97.3586,VALID,0.107441,VALID,19.7793,VALID,142,VALID,0.667578,
2011-04-26, 02:02:04,VALID,915.84,VALID,0,VALID,97.351,VALID,0,VALID,19.7793,VALID,142,VALID,0.749219,
2011-04-26, 02:03:04,VALID,915.828,VALID,0,VALID,97.351,VALID,0.107441,VALID,19.7793,VALID,142,VALID,0.78125,
2011-04-26, 02:04:04,VALID,915.823,VALID,0,VALID,97.351,VALID,0.107441,VALID,19.7598,VALID,142,VALID,0.612109,
2011-04-26, 02:05:04,VALID,915.802,VALID,0,VALID,97.3586,VALID,0.107441,VALID,19.7208,VALID,142,VALID,0.573438,
2011-04-26, 02:06:04,VALID,915.771,VALID,0,VALID,97.3434,VALID,0,VALID,19.7208,VALID,142,VALID,0.53125,
2011-04-26, 02:07:04,VALID,915.778,VALID,0,VALID,97.3434,VALID,0,VALID,19.7028,VALID,142,VALID,0.65625,
2011-04-26, 02:08:04,VALID,915.744,VALID,0,VALID,97.3586,VALID,0,VALID,19.7028,VALID,142,VALID,0.616797,
2011-04-26, 02:09:04,VALID,915.7,VALID,0,VALID,97.3586,VALID,0,VALID,19.7028,VALID,142,VALID,0.600391,
2011-04-26, 02:10:04,VALID,915.719,VALID,0,VALID,97.3663,VALID,0,VALID,19.7418,VALID,142,VALID,0.719141,
2011-04-26, 02:11:04,VALID,915.688,VALID,0,VALID,97.3586,VALID,0,VALID,19.7628,VALID,142,VALID,0.775391,
2011-04-26, 02:12:04,VALID,915.687,VALID,0,VALID,97.3663,VALID,0,VALID,19.7418,VALID,142,VALID,0.920703,
2011-04-26, 02:13:04,VALID,915.688,VALID,0,VALID,97.3663,VALID,0,VALID,19.7418,VALID,142,VALID,0.617578,
2011-04-26, 02:14:04,VALID,915.693,VALID,0,VALID,97.3815,VALID,0,VALID,19.7613,VALID,142,VALID,0.410937,
2011-04-26, 02:15:04,VALID,915.68,VALID,0,VALID,97.3586,VALID,0,VALID,19.7613,VALID,142,VALID,0.626562,
2011-04-26, 02:16:04,VALID,915.669,VALID,0,VALID,97.3815,VALID,0,VALID,19.7418,VALID,142,VALID,0.575781,
2011-04-26, 02:17:04,VALID,915.657,VALID,0,VALID,97.3663,VALID,0,VALID,19.7418,VALID,142,VALID,0.364844,
2011-04-26, 02:18:04,VALID,915.629,VALID,0,VALID,97.3739,VALID,0,VALID,19.7403,VALID,142,VALID,0.353516,
2011-04-26, 02:19:04,VALID,915.617,VALID,0,VALID,97.3968,VALID,0,VALID,19.7808,VALID,142,VALID,0.528516,
2011-04-26, 02:20:04,VALID,915.585,VALID,0,VALID,97.3586,VALID,0,VALID,19.7613,VALID,142,VALID,0.452734,
2011-04-26, 02:21:04,VALID,915.577,VALID,0,VALID,97.3663,VALID,0,VALID,19.7418,VALID,142,VALID,0.3625,
2011-04-26, 02:22:04,VALID,915.56,VALID,0,VALID,97.3663,VALID,0,VALID,19.7028,VALID,142,VALID,0.381641,
2011-04-26, 02:23:04,VALID,915.522,VALID,0,VALID,97.3663,VALID,0,VALID,19.6623,VALID,142,VALID,0.274219,
2011-04-26, 02:24:04,VALID,915.544,VALID,0,VALID,97.3739,VALID,0,VALID,19.6833,VALID,142,VALID,0.434375,
2011-04-26, 02:25:04,VALID,915.552,VALID,0,VALID,97.3663,VALID,0,VALID,19.6638,VALID,142,VALID,0.422266,
2011-04-26, 02:26:04,VALID,915.529,VALID,0,VALID,97.3739,VALID,0,VALID,19.6833,VALID,142,VALID,0.454688,
2011-04-26, 02:27:04,VALID,915.524,VALID,0,VALID,97.3968,VALID,0,VALID,19.6833,VALID,142,VALID,0.553125,
2011-04-26, 02:28:04,VALID,915.547,VALID,0,VALID,97.3663,VALID,0,VALID,19.6833,VALID,142,VALID,0.297266,
2011-04-26, 02:29:04,VALID,915.539,VALID,0,VALID,97.3891,VALID,0,VALID,19.6833,VALID,142,VALID,0.00117188,
2011-04-26, 02:30:04,VALID,915.488,VALID,0,VALID,97.3815,VALID,0,VALID,19.6638,VALID,142,VALID,0.3125,
2011-04-26, 02:31:04,VALID,915.506,VALID,0,VALID,97.3891,VALID,0,VALID,19.6638,VALID,142,VALID,0.541016,
2011-04-26, 02:32:04,VALID,915.503,VALID,0,VALID,97.3968,VALID,0,VALID,19.6443,VALID,142,VALID,0.649219,
2011-04-26, 02:33:04,VALID,915.474,VALID,0,VALID,97.3968,VALID,0,VALID,19.6443,VALID,142,VALID,0.713672,
2011-04-26, 02:34:04,VALID,915.486,VALID,0,VALID,97.3968,VALID,0,VALID,19.6443,VALID,142,VALID,0.58125,
2011-04-26, 02:35:04,VALID,915.466,VALID,0,VALID,97.3891,VALID,0,VALID,19.6458,VALID,142,VALID,0.667188,
2011-04-26, 02:36:04,VALID,915.497,VALID,0,VALID,97.3968,VALID,0,VALID,19.6443,VALID,142,VALID,0.761719,
2011-04-26, 02:37:04,VALID,915.48,VALID,0,VALID,97.3891,VALID,0,VALID,19.6653,VALID,142,VALID,0.894531,
2011-04-26, 02:38:04,VALID,915.476,VALID,0,VALID,97.3968,VALID,0,VALID,19.6443,VALID,142,VALID,0.548047,
2011-04-26, 02:39:04,VALID,915.492,VALID,0,VALID,97.3968,VALID,0,VALID,19.6248,VALID,142,VALID,0.712109,
2011-04-26, 02:40:04,VALID,915.492,VALID,0,VALID,97.3891,VALID,0,VALID,19.6248,VALID,142,VALID,0.406641,
2011-04-26, 02:41:04,VALID,915.487,VALID,0,VALID,97.3891,VALID,0,VALID,19.6443,VALID,142,VALID,0,
2011-04-26, 02:42:04,VALID,915.466,VALID,0,VALID,97.3739,VALID,0,VALID,19.6443,VALID,142,VALID,0.201562,
2011-04-26, 02:43:04,VALID,915.476,VALID,0,VALID,97.3891,VALID,0,VALID,19.6248,VALID,142,VALID,0,
2011-04-26, 02:44:04,VALID,915.5,VALID,0,VALID,97.3968,VALID,0,VALID,19.6053,VALID,142,VALID,0,
2011-04-26, 02:45:04,VALID,915.519,VALID,0,VALID,97.412,VALID,0,VALID,19.6053,VALID,142,VALID,0.167187,
2011-04-26, 02:46:04,VALID,915.499,VALID,0,VALID,97.3815,VALID,0,VALID,19.6053,VALID,142,VALID,0,
2011-04-26, 02:47:04,VALID,915.491,VALID,0,VALID,97.3968,VALID,0,VALID,19.5663,VALID,142,VALID,0,
2011-04-26, 02:48:04,VALID,915.467,VALID,0,VALID,97.3815,VALID,0,VALID,19.5273,VALID,142,VALID,0.411328,
2011-04-26, 02:49:04,VALID,915.475,VALID,0,VALID,97.3739,VALID,0,VALID,19.5273,VALID,142,VALID,0.512891,
2011-04-26, 02:50:04,VALID,915.463,VALID,0,VALID,97.3815,VALID,0,VALID,19.5468,VALID,142,VALID,0.772656,
2011-04-26, 02:51:04,VALID,915.455,VALID,0,VALID,97.4044,VALID,0,VALID,19.5678,VALID,142,VALID,0.585938,
2011-04-26, 02:52:04,VALID,915.441,VALID,0,VALID,97.4044,VALID,0,VALID,19.5468,VALID,142,VALID,0.757813,
2011-04-26, 02:53:04,VALID,915.433,VALID,0,VALID,97.3891,VALID,0,VALID,19.5663,VALID,142,VALID,0.773438,
2011-04-26, 02:54:04,VALID,915.419,VALID,0,VALID,97.4044,VALID,0,VALID,19.5663,VALID,142,VALID,0.586719,
2011-04-26, 02:55:04,VALID,915.378,VALID,0,VALID,97.3968,VALID,0,VALID,19.5663,VALID,142,VALID,1.08203,
2011-04-26, 02:56:04,VALID,915.397,VALID,0,VALID,97.412,VALID,0,VALID,19.5468,VALID,141,VALID,0.857813,
2011-04-26, 02:57:04,VALID,915.402,VALID,0,VALID,97.3968,VALID,0,VALID,19.5468,VALID,128,VALID,0.94375,
2011-04-26, 02:58:04,VALID,915.402,VALID,0,VALID,97.4044,VALID,0,VALID,19.5078,VALID,128,VALID,0.860547,
2011-04-26, 02:59:04,VALID,915.41,VALID,0,VALID,97.4196,VALID,0,VALID,19.5078,VALID,128,VALID,0.810156,
2011-04-26, 03:00:04,VALID,915.368,VALID,0,VALID,97.4196,VALID,0,VALID,19.5273,VALID,106,VALID,1.00898,
2011-04-26, 03:01:04,VALID,915.367,VALID,0,VALID,97.4196,VALID,0,VALID,19.4883,VALID,102,VALID,0.730859,
2011-04-26, 03:02:04,VALID,915.374,VALID,0,VALID,97.3968,VALID,0,VALID,19.4883,VALID,112,VALID,0.95,
2011-04-26, 03:03:04,VALID,915.368,VALID,0,VALID,97.4044,VALID,0,VALID,19.4883,VALID,112,VALID,0.842188,
2011-04-26, 03:04:04,VALID,915.352,VALID,0,VALID,97.4273,VALID,0,VALID,19.4883,VALID,113,VALID,0.6375,
2011-04-26, 03:05:04,VALID,915.346,VALID,0,VALID,97.4196,VALID,0,VALID,19.4688,VALID,113,VALID,0.865234,
2011-04-26, 03:06:04,VALID,915.353,VALID,0,VALID,97.4044,VALID,0,VALID,19.4703,VALID,112,VALID,0.639063,
2011-04-26, 03:07:04,VALID,915.339,VALID,0,VALID,97.4196,VALID,0,VALID,19.4493,VALID,113,VALID,0.446875,
2011-04-26, 03:08:04,VALID,915.319,VALID,0,VALID,97.4044,VALID,0,VALID,19.4493,VALID,125,VALID,0.571484,
2011-04-26, 03:09:04,VALID,915.362,VALID,0,VALID,97.4044,VALID,0,VALID,19.4493,VALID,125,VALID,0.367188,
2011-04-26, 03:10:04,VALID,915.328,VALID,0,VALID,97.4196,VALID,0,VALID,19.4298,VALID,125,VALID,0.433594,
2011-04-26, 03:11:04,VALID,915.299,VALID,0,VALID,97.412,VALID,0,VALID,19.4703,VALID,125,VALID,0.641016,
2011-04-26, 03:12:04,VALID,915.3,VALID,0,VALID,97.4196,VALID,0,VALID,19.4688,VALID,125,VALID,0.179688,
2011-04-26, 03:13:04,VALID,915.286,VALID,0,VALID,97.4349,VALID,0,VALID,19.4883,VALID,125,VALID,0.402734,
2011-04-26, 03:14:04,VALID,915.287,VALID,0,VALID,97.4196,VALID,0,VALID,19.5093,VALID,125,VALID,0.260156,
2011-04-26, 03:15:04,VALID,915.231,VALID,0,VALID,97.4196,VALID,0,VALID,19.5093,VALID,125,VALID,0.444922,
2011-04-26, 03:16:04,VALID,915.252,VALID,0,VALID,97.4425,VALID,0,VALID,19.4688,VALID,125,VALID,0.939844,
2011-04-26, 03:17:04,VALID,915.24,VALID,0,VALID,97.4425,VALID,0,VALID,19.4883,VALID,125,VALID,0.680469,
2011-04-26, 03:18:04,VALID,915.192,VALID,0,VALID,97.4273,VALID,0,VALID,19.4898,VALID,125,VALID,0.948047,
2011-04-26, 03:19:04,VALID,915.215,VALID,0,VALID,97.4349,VALID,0,VALID,19.4688,VALID,125,VALID,0.822656,
2011-04-26, 03:20:04,VALID,915.185,VALID,0,VALID,97.4349,VALID,0,VALID,19.4883,VALID,125,VALID,0.974219,
2011-04-26, 03:21:04,VALID,915.185,VALID,0,VALID,97.4273,VALID,0,VALID,19.4883,VALID,125,VALID,0.558984,
2011-04-26, 03:22:04,VALID,915.173,VALID,0,VALID,97.4349,VALID,0,VALID,19.4688,VALID,125,VALID,0.619141,
2011-04-26, 03:23:04,VALID,915.193,VALID,0,VALID,97.4425,VALID,0,VALID,19.4688,VALID,125,VALID,0.615625,
2011-04-26, 03:24:04,VALID,915.161,VALID,0,VALID,97.4425,VALID,0,VALID,19.4688,VALID,125,VALID,0.801953,
2011-04-26, 03:25:04,VALID,915.187,VALID,0,VALID,97.4501,VALID,0,VALID,19.5093,VALID,125,VALID,0.485156,
2011-04-26, 03:26:04,VALID,915.176,VALID,0,VALID,97.4425,VALID,0,VALID,19.4883,VALID,125,VALID,0.685938,
2011-04-26, 03:27:04,VALID,915.185,VALID,0,VALID,97.4501,VALID,0,VALID,19.5078,VALID,125,VALID,0.910156,
2011-04-26, 03:28:04,VALID,915.168,VALID,0,VALID,97.4577,VALID,0,VALID,19.4868,VALID,125,VALID,0.361328,
2011-04-26, 03:29:04,VALID,915.149,VALID,0,VALID,97.4577,VALID,0,VALID,19.5078,VALID,125,VALID,0.466016,
2011-04-26, 03:30:04,VALID,915.139,VALID,0,VALID,97.4577,VALID,0,VALID,19.5273,VALID,125,VALID,0.482422,
2011-04-26, 03:31:04,VALID,915.112,VALID,0,VALID,97.4577,VALID,0,VALID,19.5678,VALID,177,VALID,1.25391,
2011-04-26, 03:32:04,VALID,915.127,VALID,0,VALID,97.4501,VALID,0,VALID,19.5663,VALID,174,VALID,1.12773,
2011-04-26, 03:33:04,VALID,915.13,VALID,0,VALID,97.4425,VALID,0,VALID,19.5858,VALID,183,VALID,0.949219,
2011-04-26, 03:34:04,VALID,915.134,VALID,0,VALID,97.4577,VALID,0,VALID,19.6053,VALID,173,VALID,1.25352,
2011-04-26, 03:35:04,VALID,915.118,VALID,0,VALID,97.4577,VALID,0,VALID,19.6053,VALID,177,VALID,0.654688,
2011-04-26, 03:36:04,VALID,915.126,VALID,0,VALID,97.4501,VALID,0,VALID,19.6053,VALID,190,VALID,1.27148,
2011-04-26, 03:37:04,VALID,915.148,VALID,0,VALID,97.4349,VALID,0,VALID,19.6263,VALID,177,VALID,0.860156,
2011-04-26, 03:38:04,VALID,915.191,VALID,0,VALID,97.4501,VALID,0,VALID,19.6263,VALID,175,VALID,0.980469,
2011-04-26, 03:39:04,VALID,915.163,VALID,0,VALID,97.4577,VALID,0,VALID,19.6263,VALID,171,VALID,0.890625,
2011-04-26, 03:40:04,VALID,915.16,VALID,0,VALID,97.4349,VALID,0,VALID,19.6263,VALID,172,VALID,1.01992,
2011-04-26, 03:41:04,VALID,915.185,VALID,0,VALID,97.4501,VALID,0,VALID,19.6248,VALID,172,VALID,0.569922,
2011-04-26, 03:42:04,VALID,915.201,VALID,0,VALID,97.4425,VALID,0,VALID,19.6458,VALID,172,VALID,0.158984,
2011-04-26, 03:43:04,VALID,915.188,VALID,0,VALID,97.4425,VALID,0,VALID,19.6248,VALID,172,VALID,0.466797,